Barcelona, Spain

8:59 PM CET on November 20, 2018 (GMT +0100)
El Prat

Weather History for LEBL - February, 2018

Change the Weather History Date:

Sunday, February 25, 2018

  Actual Average Record
Temperature  
Mean Temperature 50 °F -  
Max Temperature 59 °F 58 °F 68 °F (1997)
Min Temperature 41 °F 44 °F 36 °F (2013)
Degree Days  
Heating Degree Days 15    
Moisture  
Dew Point 37 °F    
Average Humidity 61    
Maximum Humidity 82    
Minimum Humidity 30    
Precipitation  
Precipitation 0.00 in 0.06 in - ()
Sea Level Pressure  
Sea Level Pressure 29.80 in    
Wind  
Wind Speed 7 mph ()    
Max Wind Speed 14 mph    
Max Gust Speed 29 mph    
Visibility 7.3 miles    
Events      
Averages and records for this station are not official NWS values.
T = Trace of Precipitation, MM = Missing Value Source: Averaged Metar Reports

Daily Weather History Graph

Daily Weather History Graph

Search for Another Location

Airport or City:

Astronomy

Feb. 25, 2018 Rise Set
Actual Time 7:32 AM CET 6:37 PM CET
Civil Twilight 7:04 AM CET 7:05 PM CET
Nautical Twilight 6:32 AM CET 7:37 PM CET
Astronomical Twilight 6:00 AM CET 8:09 PM CET
Moon 1:42 PM CET (2/25) 3:44 AM CET (2/25)
Length of Visible Light 12h 00m
Length of Day
11h 05m
Waxing Gibbous, 73% of the Moon is Illuminated
Feb 25
Waxing Gibbous
Mar 2
Full
Mar 9
Last Quarter
Mar 17
New
Mar 24
First Quarter

Hourly Weather History & Observations

Time (CET) Temp. Windchill Dew Point Humidity Pressure Visibility Wind Dir Wind Speed Gust Speed Precip Events Conditions
12:00 AM 43 °F - 37 °F 72% 29.83 in 8 mi North 8.1 mph - -  
12:00 AM 42.8 °F 40.1 °F 35.6 °F 76% 29.83 in 6.2 mi NW 4.6 mph - N/A   Partly Cloudy
12:30 AM 42.8 °F 39.3 °F 35.6 °F 76% 29.83 in 6.2 mi NW 5.8 mph - N/A   Partly Cloudy
1:00 AM 42 °F - 36 °F 73% 29.84 in 7 mi North 8.1 mph - -   Scattered Clouds
1:00 AM 41.0 °F 37.1 °F 35.6 °F 81% 29.83 in 6.2 mi NNW 5.8 mph - N/A   Partly Cloudy
1:30 AM 41.0 °F 36.4 °F 35.6 °F 81% 29.83 in 6.2 mi NW 6.9 mph - N/A   Partly Cloudy
2:00 AM 42 °F - 36 °F 74% 29.84 in 7 mi North 5.8 mph - -  
2:00 AM 41.0 °F 37.1 °F 35.6 °F 81% 29.83 in 6.2 mi NW 5.8 mph - N/A   Partly Cloudy
2:30 AM 41.0 °F 35.8 °F 35.6 °F 81% 29.83 in 6.2 mi NW 8.1 mph - N/A   Partly Cloudy
3:00 AM 42 °F - 36 °F 72% 29.84 in 7 mi North 8.1 mph - -  
3:00 AM 41.0 °F 37.1 °F 35.6 °F 81% 29.83 in 6.2 mi NW 5.8 mph - N/A   Partly Cloudy
3:30 AM 41.0 °F 35.8 °F 35.6 °F 81% 29.83 in 6.2 mi NW 8.1 mph - N/A   Partly Cloudy
4:00 AM 42 °F - 35 °F 69% 29.83 in 6 mi North 9.2 mph - -   Scattered Clouds
4:00 AM 41.0 °F 34.7 °F 35.6 °F 81% 29.80 in 6.2 mi NW 10.4 mph - N/A   Partly Cloudy
4:30 AM 41.0 °F 34.3 °F 33.8 °F 76% 29.80 in 6.2 mi NW 11.5 mph - N/A   Partly Cloudy
5:00 AM 42 °F - 34 °F 65% 29.82 in 6 mi North 9.2 mph - -  
5:00 AM 41.0 °F 35.8 °F 33.8 °F 76% 29.80 in 6.2 mi NW 8.1 mph - N/A   Partly Cloudy
5:30 AM 41.0 °F 34.7 °F 33.8 °F 76% 29.80 in 6.2 mi NNW 10.4 mph - N/A   Partly Cloudy
6:00 AM 41 °F - 33 °F 66% 29.83 in 6 mi NNE 6.9 mph - -  
6:00 AM 41.0 °F 35.8 °F 33.8 °F 76% 29.80 in 6.2 mi NW 8.1 mph - N/A   Partly Cloudy
6:30 AM 41.0 °F 35.2 °F 32.0 °F 70% 29.80 in 6.2 mi NW 9.2 mph - N/A   Partly Cloudy
7:00 AM 41.0 °F 35.2 °F 32.0 °F 70% 29.80 in 6.2 mi NNW 9.2 mph - N/A   Partly Cloudy
7:30 AM 41.0 °F 34.7 °F 32.0 °F 70% 29.80 in 6.2 mi NW 10.4 mph - N/A   Partly Cloudy
8:00 AM 41.0 °F 34.3 °F 32.0 °F 70% 29.80 in 6.2 mi NNW 11.5 mph - N/A   Partly Cloudy
8:30 AM 41.0 °F 34.3 °F 32.0 °F 70% 29.83 in 6.2 mi NW 11.5 mph - N/A   Partly Cloudy
9:00 AM 42 °F - 33 °F 60% 29.83 in 6 mi North 8.1 mph - -  
9:00 AM 41.0 °F 34.7 °F 32.0 °F 70% 29.83 in 6.2 mi NW 10.4 mph 24.2 mph N/A   Partly Cloudy
9:30 AM 44.6 °F 38.8 °F 32.0 °F 61% 29.83 in 6.2 mi NW 11.5 mph - N/A   Partly Cloudy
10:00 AM 49 °F - 33 °F 42% 29.83 in 7 mi North 9.2 mph - -   Clear
10:00 AM 48.2 °F - 32.0 °F 54% 29.80 in - NW 11.5 mph - N/A   Clear
10:30 AM 50.0 °F - 32.0 °F 50% 29.80 in - NW 12.7 mph 28.8 mph N/A   Clear
11:00 AM 54 °F - 32 °F 31% 29.82 in 7 mi North 9.2 mph - -  
11:00 AM 53.6 °F - 32.0 °F 44% 29.80 in - NW 13.8 mph - N/A   Clear
11:30 AM 55.4 °F - 32.0 °F 41% 29.80 in - NW 11.5 mph 27.6 mph N/A   Clear
12:00 PM 56 °F - 33 °F 30% 29.82 in 11 mi SSW 6.9 mph - -  
12:00 PM 55.4 °F - 33.8 °F 44% 29.80 in - NW 5.8 mph - N/A   Clear
12:30 PM 55.4 °F - 37.4 °F 51% 29.80 in - SSW 9.2 mph - N/A   Clear
1:00 PM 58 °F - 37 °F 33% 29.81 in 7 mi WSW 6.9 mph - -   Clear
1:00 PM 55.4 °F - 37.4 °F 51% 29.80 in - SW 6.9 mph - N/A   Clear
1:30 PM 55.4 °F - 37.4 °F 51% 29.80 in - SSW 8.1 mph - N/A   Clear
2:00 PM 58 °F - 41 °F 42% 29.80 in 9 mi SW 9.2 mph - -  
2:00 PM 57.2 °F - 35.6 °F 44% 29.80 in - SSW 9.2 mph - N/A   Clear
2:30 PM 57.2 °F - 39.2 °F 51% 29.77 in 6.2 mi SSW 10.4 mph - N/A   Partly Cloudy
3:00 PM 58 °F - 38 °F 36% 29.78 in 11 mi SW 12.7 mph - -  
3:00 PM 57.2 °F - 39.2 °F 51% 29.77 in 6.2 mi SSW 10.4 mph - N/A   Partly Cloudy
3:30 PM 57.2 °F - 39.2 °F 51% 29.77 in 6.2 mi SSW 10.4 mph - N/A   Partly Cloudy
4:00 PM 59 °F - 39 °F 35% 29.78 in 11 mi WSW 11.5 mph - -   Scattered Clouds
4:00 PM 57.2 °F - 39.2 °F 51% 29.77 in 6.2 mi SW 9.2 mph - N/A   Partly Cloudy
4:30 PM 57.2 °F - 37.4 °F 48% 29.77 in 6.2 mi SW 11.5 mph - N/A   Partly Cloudy
5:00 PM 59 °F - 42 °F 43% 29.76 in 10 mi SW 10.4 mph - -  
5:00 PM 57.2 °F - 41.0 °F 55% 29.74 in 6.2 mi SW 10.4 mph - N/A   Partly Cloudy
5:30 PM 57.2 °F - 42.8 °F 59% 29.74 in - SW 9.2 mph - N/A   Clear
6:00 PM 58 °F - 45 °F 51% 29.76 in 13 mi WSW 8.1 mph - -  
6:00 PM 57.2 °F - 42.8 °F 59% 29.74 in - SW 8.1 mph - N/A   Clear
6:30 PM 55.4 °F - 44.6 °F 67% 29.74 in - SW 8.1 mph - N/A   Clear
7:00 PM 55 °F - 47 °F 66% 29.76 in 11 mi WSW 4.6 mph - -   Clear
7:00 PM 53.6 °F - 46.4 °F 77% 29.74 in - SW 5.8 mph - N/A   Clear
7:30 PM 55.4 °F - 44.6 °F 67% 29.74 in - SSW 2.3 mph - N/A   Clear
8:00 PM 53 °F - 46 °F 70% 29.77 in 11 mi Calm Calm - -  
8:00 PM 51.8 °F - 46.4 °F 82% 29.74 in - WSW 3.5 mph - N/A   Clear
8:30 PM 51.8 °F - 39.2 °F 62% 29.74 in - WNW 4.6 mph - N/A   Clear
9:30 PM 50.0 °F - 41.0 °F 71% 29.77 in - WSW 4.6 mph - N/A   Clear
10:00 PM 49 °F - 38 °F 55% 29.79 in 11 mi NNE 2.3 mph - -   Clear
10:00 PM 48.2 °F - 37.4 °F 66% 29.77 in - North 3.5 mph - N/A   Clear
10:30 PM 48.2 °F - 35.6 °F 62% 29.80 in - NNW 3.5 mph - N/A   Clear
11:00 PM 47 °F - 35 °F 53% 29.81 in 9 mi NE 3.5 mph - -  
11:00 PM 46.4 °F 43.5 °F 35.6 °F 66% 29.80 in - East 5.8 mph - N/A   Clear
11:30 PM 46.4 °F 42.4 °F 33.8 °F 62% 29.80 in - ENE 8.1 mph - N/A   Clear